Location: Newark
(46.1292°N, 1.0086°W)
Time: 05:24:49
(UTC+00:00)

Vanguard 1 - All Passes

Search period start: 19 November 2019 00:00
Search period end: 29 November 2019 00:00
Orbit: 652 x 3831 km, 34.2° (Epoch: 18 November)

Date Brightness Start Highest point End Pass type
(mag) Time Alt. Az. Time Alt. Az. Time Alt. Az.
19 Nov - 07:48:57 10° S 07:52:13 11° SSE 07:55:05 10° SE daylight
19 Nov - 10:05:44 10° SW 10:13:10 23° S 10:18:14 10° ESE daylight
19 Nov - 12:27:26 10° WSW 12:33:04 26° S 12:37:10 10° SE daylight
19 Nov - 14:49:58 10° SW 14:52:07 13° SSW 14:54:08 10° S daylight
20 Nov - 08:06:20 10° S 08:13:14 16° SSE 08:18:26 10° ESE daylight
20 Nov - 10:26:07 10° SW 10:34:04 27° S 10:39:16 10° ESE daylight
20 Nov - 12:48:25 10° WSW 12:53:47 25° SSW 12:57:46 10° SE daylight
21 Nov - 08:25:24 10° SSW 08:34:14 21° SSE 08:40:19 10° ESE daylight
21 Nov - 10:46:47 10° SW 10:54:56 30° S 11:00:10 10° ESE daylight
21 Nov - 13:09:33 10° WSW 13:14:28 22° SSW 13:18:13 10° SE daylight
22 Nov - 06:29:08 10° SSE 06:33:34 12° SSE 06:37:24 10° SE visible
22 Nov - 08:45:10 10° SSW 08:55:13 26° SSE 09:01:42 10° ESE daylight
22 Nov - 11:07:39 10° WSW 11:15:46 32° S 11:20:56 10° ESE daylight
22 Nov - 13:30:49 10° WSW 13:35:04 19° SSW 13:38:28 10° SSE daylight
23 Nov - 06:45:53 10° S 06:54:36 17° SSE 07:01:09 10° ESE visible
23 Nov - 09:05:25 10° SW 09:16:10 30° S 09:22:50 10° ESE daylight
23 Nov - 11:28:39 10° WSW 11:36:33 32° S 11:41:37 10° SE daylight
23 Nov - 13:52:24 10° WSW 13:55:38 15° SSW 13:58:21 10° S daylight
24 Nov - 07:04:32 10° SSW 07:15:38 22° SSE 07:23:18 10° ESE daylight
24 Nov - 09:25:59 10° SW 09:37:07 34° S 09:43:48 10° ESE daylight
24 Nov - 11:49:45 10° WSW 11:57:17 30° SSW 12:02:11 10° SE daylight
24 Nov - 14:14:59 10° SW 14:16:05 11° SW 14:17:08 10° SSW daylight
25 Nov - 05:10:19 10° SSE 05:14:23 11° SE 05:18:03 10° SE visible
25 Nov - 07:23:59 10° SSW 07:36:39 27° SSE 07:44:51 10° ESE daylight
25 Nov - 09:46:48 10° WSW 09:58:01 37° S 10:04:38 10° ESE daylight
25 Nov - 12:10:59 10° WSW 12:17:57 27° SSW 12:22:38 10° SE daylight
26 Nov - 05:25:38 10° S 05:35:24 16° SSE 05:43:03 10° ESE visible
26 Nov - 07:44:00 10° SW 07:57:41 32° SSE 08:06:06 10° ESE daylight
26 Nov - 10:07:48 10° WSW 10:18:54 39° S 10:25:23 10° ESE daylight
26 Nov - 12:32:20 10° WSW 12:38:32 23° SSW 12:42:54 10° SSE daylight
27 Nov - 05:43:37 10° SSW 05:56:24 22° SSE 06:05:39 10° ESE visible
27 Nov - 08:04:24 10° SW 08:18:41 37° SSE 08:27:09 10° ESE daylight
27 Nov - 10:28:56 10° WSW 10:39:44 39° S 10:46:03 10° ESE daylight
27 Nov - 12:53:54 10° WSW 12:59:02 19° SSW 13:02:53 10° SSE daylight
28 Nov - 06:02:38 10° SSW 06:17:26 27° SSE 06:27:28 10° ESE visible
28 Nov - 08:25:06 10° SW 08:39:40 41° S 08:48:04 10° ESE daylight
28 Nov - 10:50:10 10° WSW 11:00:29 37° SSW 11:06:37 10° SE daylight
28 Nov - 13:15:55 10° WSW 13:19:26 14° SW 13:22:18 10° S daylight
